Home   Weather   Oss   Past weeks

Flag for Netherlands Past Weather in Oss, Netherlands — Yesterday and Last 2 Weeks

Now
63 °F

Mild.


Feels Like: 63 °F
Forecast: 46 / 54 °F
Wind: 21 mph from Southeast

Location: Volkel

Current Time: Apr 30, 2017 at 1:04:25 pm

Latest Report: Apr 30, 2017 at 12:25 pm


Visibility: N/A

Pressure: 29.83 "Hg

Humidity: 34%

Dew Point: 34 °F

Location of OssLocation

Past Weather in Oss — Graph

°F

Oss Temperature Yesterday

Maximum temperature yesterday: 55 °F (at 3:25 pm)
Minimum temperature yesterday: 34 °F (at 6:25 am)
Average temperature yesterday: 45 °F

High & Low Weather Summary for the Past Weeks

 TemperatureHumidityPressure
High61 °F (Apr 30, 11:55 am)100% (Apr 20, 6:55 am)30.63 "Hg (Apr 20, 6:55 am)
Low25 °F (Apr 20, 6:55 am)33% (Apr 20, 3:25 pm)29.68 "Hg (Apr 25, 4:25 am)
Average45 °F69%30.14 "Hg
* Reported Apr 15 11:25 am — Apr 30 11:55 am, Oss, Weather by CustomWeather, © 2017

Note: Actual official high and low records may vary slightly from our data, if they occured in-between our weather recording intervals... More about our weather records

Advertising

Oss Weather History for the Previous 24 Hours

Scroll right to see more
 ConditionsComfort  
Time TempWeatherWind HumidityBarometerVisibility
11:55 am
Sun, Apr 30
61 °FScattered clouds.16 mph36%29.83 "HgN/A
11:25 am59 °FRefreshingly cool.16 mph42%29.86 "HgN/A
10:55 am57 °FRefreshingly cool.15 mph41%29.86 "HgN/A
10:25 am55 °FPassing clouds.15 mph44%29.86 "HgN/A
9:55 am54 °FPassing clouds.13 mph47%29.89 "HgN/A
9:25 am50 °FCool.15 mph50%29.89 "HgN/A
8:55 am48 °FCool.13 mph54%29.92 "HgN/A
8:25 am46 °FCool.12 mph57%29.92 "HgN/A
7:55 am43 °FPassing clouds.9 mph66%29.92 "HgN/A
7:25 am41 °FScattered clouds.10 mph70%29.92 "HgN/A
6:55 am39 °FPassing clouds.8 mph70%29.95 "HgN/A
6:25 am36 °FOvercast.7 mph75%29.95 "HgN/A
5:55 am41 °FPassing clouds.9 mph66%29.95 "HgN/A
5:25 am39 °FPassing clouds.7 mph70%29.95 "HgN/A
4:55 am41 °FPassing clouds.9 mph66%29.95 "HgN/A
4:25 am39 °FPassing clouds.7 mph70%29.98 "HgN/A
3:55 am41 °FQuite cool.8 mph70%29.98 "HgN/A
3:25 am41 °FPassing clouds.8 mph70%29.98 "HgN/A
2:55 am39 °FPassing clouds.7 mph75%29.98 "HgN/A
2:25 am41 °FQuite cool.7 mph70%29.98 "HgN/A
1:55 am43 °FPassing clouds.8 mph66%29.98 "HgN/A
1:25 am41 °FQuite cool.8 mph70%29.98 "HgN/A
12:55 am39 °FPassing clouds.6 mph70%30.01 "HgN/A
12:25 am39 °FPassing clouds.6 mph70%30.01 "HgN/A
11:55 pm
Sat, Apr 29
41 °FPassing clouds.6 mph70%30.01 "HgN/A
11:25 pm43 °FPassing clouds.5 mph71%30.01 "HgN/A
10:55 pm45 °FPassing clouds.5 mph66%30.01 "HgN/A
10:25 pm46 °FCool.5 mph62%30.01 "HgN/A
9:25 pm46 °FPassing clouds.7 mph57%30.01 "HgN/A
8:55 pm48 °FCool.7 mph58%30.01 "HgN/A
7:55 pm52 °FPassing clouds.3 mph54%30.01 "HgN/A
7:25 pm54 °FPassing clouds.8 mph44%30.01 "HgN/A
6:55 pm55 °FOvercast.3 mph41%30.04 "HgN/A
6:25 pm55 °FPartly sunny.5 mph44%30.04 "HgN/A
5:55 pm55 °FOvercast.3 mph44%30.04 "HgN/A
5:25 pm55 °FPartly sunny.6 mph44%30.04 "HgN/A
4:55 pm55 °FBroken clouds.2 mph47%30.04 "HgN/A
4:25 pm55 °FOvercast.6 mph47%30.04 "HgN/A
3:55 pm54 °FOvercast.6 mph47%30.07 "HgN/A
3:25 pm55 °FMore clouds than sun.5 mph44%30.07 "HgN/A
2:25 pm54 °FMore clouds than sun.3 mph47%30.07 "HgN/A
1:55 pm54 °FOvercast.5 mph44%30.07 "HgN/A
1:25 pm52 °FMore clouds than sun.7 mph47%30.07 "HgN/A
Weather by CustomWeather, © 2017

See weather overviewHow to use our weather pages